sat.trackr.live / text

‹ back to catalog

GECAM-A

NORAD 47234 · 2020-094A

PAYLOAD ACTIVE UNKNOWN

§ Identity

Operator
Country
PRC
Launch date
2020-12-09
Launch site
XICLF
Launch vehicle
Mass (kg)
RCS (m²)

External: N2YO · Heavens-Above · Gunter

§ Orbital elements

Epoch: 2026-06-17T06:46:16.874400Z

Period
95.95 min
Inclination
28.9954°
Eccentricity
0.0010614
Mean motion
15.00786144 rev/d
Perigee alt
557.1 km
Apogee alt
571.8 km
Semi-major
6,942.6 km
B*
1.1743e-4
RAAN
25.3931°
Arg perigee
318.1471°
Mean anomaly
41.8315°
Rev number
30,170

§ Raw data

GECAM-A1 47234U 20094A   26168.28213975  .00001679  00000+0  11743-3 0  99962 47234  28.9954  25.3931 0010614 318.1471  41.8315 15.00786144301708

JSON: /api/v1/satellites/47234 · /tle

For live sub-satellite position, see the globe view (requires WebGL).

§ Visibility from observer

Set your observer location to see the next 7 days of passes ≥ 10°. The values pass through the URL so the page stays shareable.

No JS? Fill the form by hand. The geolocation button needs JavaScript.